Location: Saint+Peter+Port
(49.4500°N, 2.5330°W)
Time: 06:59:52
(UTC+00:00)

ISS - Visible Passes

Search period start: 27 February 2024 00:00
Search period end: 08 March 2024 00:00
Orbit: 414 x 422 km, 51.6° (Epoch: 27 February)

Date Brightness Start Highest point End Pass type
(mag) Time Alt. Az. Time Alt. Az. Time Alt. Az.
27 Feb -3.5 05:07:05 52° NW 05:07:30 58° N 05:10:52 10° ENE visible
28 Feb -1.8 04:21:03 30° ENE 04:21:03 30° ENE 04:22:58 10° ENE visible
28 Feb -3.5 05:53:59 16° WNW 05:56:37 68° NNE 05:59:59 10° E visible
29 Feb -0.2 03:34:59 10° ENE 03:34:59 10° ENE 03:35:03 10° ENE visible
29 Feb -3.4 05:07:55 45° NW 05:08:40 60° N 05:12:01 10° E visible
01 Mar -2.1 04:21:49 34° ENE 04:21:49 34° ENE 04:24:00 10° E visible
01 Mar -3.8 05:54:45 14° WNW 05:57:34 80° SSW 06:00:58 10° ESE visible
02 Mar -0.3 03:35:43 12° ENE 03:35:43 12° ENE 03:35:57 10° ENE visible
02 Mar -3.8 05:08:39 45° WNW 05:09:34 80° NNE 05:12:58 10° ESE visible
03 Mar -2.4 04:22:33 40° E 04:22:33 40° E 04:24:52 10° E visible
03 Mar -3.1 05:55:28 13° W 05:58:12 42° SSW 06:01:25 10° SE visible
04 Mar -0.4 03:36:28 12° E 03:36:28 12° E 03:36:43 10° E visible
04 Mar -3.7 05:09:24 44° W 05:10:12 60° SSW 05:13:32 10° SE visible
05 Mar -2.4 04:23:22 35° ESE 04:23:22 35° ESE 04:25:28 10° ESE visible
05 Mar -2.1 05:56:18 12° W 05:58:30 20° SW 06:01:04 10° S visible
06 Mar -2.8 05:10:20 29° SW 05:10:29 29° SW 05:13:27 10° SSE visible
07 Mar -1.6 04:24:27 19° SE 04:24:27 19° SE 04:25:35 10° SE visible
